STARLINK-1103 (44921 NORAD) Tracking and Keplerian Element Data

This shows tracking and keplerian element data for the satellite.

Feedback or suggestion? Click here.




ElementValue
Catalog44921
NameSTARLINK-1103
Epoch Orbit644
Epoch Day48.50001157
Epoch Year2020
RAAN197.6435
Inclination53.0023
Eccentricity0.000162
Argument of Perigee49.679
Mean Anonmoly11.6039
Mean Motion15.12740835
Decay Rate0.00482551
L11 44921U 20001H 20048.50001157 .00482551 00000-0 25709-1 0 9995
L22 44921 53.0023 197.6435 0001620 49.6790 11.6039 15.12740835 6444

Live tracking and technical data element details for STARLINK-1103 (NORAD 44921). STARLINK-1103 can be tracked NOW for your location showing map with azimuth and elevation plus other details from your city location.

Track the satellite on the map from your city or location and see movement details for azimuth, elevation, latitude, longitude, range, height, and movement on the map or in text.







IsCatalogInMostPopularTable: catalog: 44921, numindb: 7
Update: records affected: 1



GetName: 44921 STARLINK-1103

Hit Count: updated at: Tue, 18 Feb 2020 00:11:02 GMT